Regional Weather Roundup
Issued by NWS

Home | Current Version | Previous Version | Text Only | Print | Product List | Glossary On
Versions: 1 2 3 4 5 6 7 8 9 10 11 12 13 14 15 16 17 18 19 20 21 22 23 24 25 26 27 28 29 30 31 32 33 34 35 36 37 38 39 40 41 42 43 44 45 46 47 48 49 50
448
ASUS44 KLIX 301911
RWRLA
LOUISIANA WEATHER ROUNDUP
NATIONAL WEATHER SERVICE NEW ORLEANS LA
200 PM CDT SAT APR 30 2016

NOTE: "FAIR" INDICATES FEW OR NO CLOUDS BELOW 12,000 FEET WITH NO
      SIGNIFICANT WEATHER AND/OR OBSTRUCTIONS TO VISIBILITY.
      SKY/WX - SKY CONDITION AND SIGNIFICANT WEATHER.
      TMP - AIR TEMPERATURE.    DP   - DEWPOINT TEMPERATURE.
      RH  - RELATIVE HUMIDITY.  PRES - PRESSURE.
      HX  - HEAT INDEX.         WCI  - WIND CHILL INDEX.

*  THESE STATIONS ARE NOT NWS OR FAA STATIONS AND ARE NOT UNDER
   NWS QUALITY CONTROL.

LAZ040-048-061>063-065-066-069-302000-
SOUTHEAST LOUISIANA

CITY           SKY/WX    TMP DP  RH WIND       PRES   REMARKS
N.O. AUDUBON     N/A     78  73  82 MISG        N/A
N.O. INTL ARPT CLOUDY    80  72  76 SE13      29.81F
N.O. LAKEFRONT CLOUDY    75  73  93 SE13      29.82F
N.O. DOWNTOWN* MOCLDY    79  73  82 VRB3      29.82F
RESERVE*       CLOUDY    80  73  81 E13       29.79F THUNDER
SLIDELL        CLOUDY    78  74  87 SE9       29.84F
BATON ROUGE    LGT RAIN  67  64  90 E23       29.75F
BOOTHVILLE     CLOUDY    79  73  82 SE15G26   29.83S
BELLE CHASSE   CLOUDY    78  73  84 SE13      29.82F
BOGALUSA*      MOCLDY    80  70  73 SE7G16    29.87S
GALLIANO*      CLOUDY    80  74  81 SE12G17   29.81F
NEW ROADS*     FAIR      69  66  89 SE15G21   29.73F
GONZALES*      TSTM      76  74  93 N5        29.82R
HAMMOND*       LGT RAIN  77  72  83 E9        29.83S
HOUMA*         LGT RAIN  77  75  94 SE20G28   29.79F
PORT FOURCHON* PTCLDY    79  75  89 SE13G22   29.82S

$$

LAZ041-044-053-054-302000-
SOUTHWEST LOUISIANA

CITY           SKY/WX    TMP DP  RH WIND       PRES   REMARKS
LAKE CHARLES   MOSUNNY   79  68  69 VRB3      29.72F
LAFAYETTE      CLOUDY    71  66  84 VRB6      29.72F
PATTERSON      NOT AVBL
SALT POINT       N/A     69  69 100 SE8       29.79R
NEW IBERIA     TSTM      70  67  90 E9        29.75F
CHENAULT AIRPK MOSUNNY   81  70  69 SE6       29.73R

$$

LAZ027-028-302000-
CENTRAL LOUISIANA

CITY           SKY/WX    TMP DP  RH WIND       PRES   REMARKS
FORT POLK      CLOUDY    80  69  70 SE8       29.71F
ALEXANDRIA INT PTSUNNY   80  68  66 SE17G24   29.70F
ALEXANDRIA     PTSUNNY   81  69  67 SE15      29.72F

$$

LAZ001-002-302000-
NORTHWEST LOUISIANA

CITY           SKY/WX    TMP DP  RH WIND       PRES   REMARKS
SHREVEPORT     MOSUNNY   82  68  62 SE16      29.70S
BARKSDALE AFB  MOSUNNY   79  68  68 SE15      29.71S
DTN SHREVEPORT SUNNY     80  67  64 SE16G22   29.71F

$$

LAZ014-016-302000-
NORTHEAST LOUISIANA

CITY           SKY/WX    TMP DP  RH WIND       PRES   REMARKS
MONROE         CLOUDY    75  69  81 VRB6G17   29.75F
TALLULAH       CLOUDY    73  69  87 SE20G26   29.74F

$$





USA.gov is the U.S. government's official web portal to all federal, state and local government web resources and services.